GW2108 Weather Reports


Display with metric or nautical units.
time (UTC)temp
F
wind
direction
speed
MPH
gust
MPH
rain 1hr
in
rain 24hr
in
rain mn
in
humidity
%
barometer
mb
20260505073003 54 9 0.0 0.0 0.00 0.00 0.00 86 1013.2
20260505071506 54 9 0.0 0.0 0.00 0.00 0.00 87 1012.9
20260505070002 54 9 0.0 0.0 0.00 0.00 0.00 87 1012.8
20260505064508 54 9 0.0 0.0 0.00 0.00 0.00 86 1012.7
20260505063015 54 9 0.0 0.0 0.00 0.00 0.00 86 1012.6
20260505061503 54 9 0.0 0.0 0.00 0.00 0.00 85 1012.3
20260505060006 54 9 0.0 0.0 0.00 0.00 0.00 85 1012.3
20260505054513 54 9 0.0 0.0 0.00 0.00 0.00 85 1012.3
20260505053014 55 9 0.0 0.0 0.00 0.00 0.00 84 1012.1
20260505051508 55 9 0.0 0.0 0.00 0.00 0.00 84 1012.0
20260505041601 57 9 0.0 0.0 0.00 0.00 0.00 80 1011.5
20260505040034 57 9 0.0 0.0 0.00 0.00 0.00 79 1011.4
20260505034517 58 9 0.0 0.0 0.00 0.00 0.00 77 1011.2
20260505033054 59 9 0.0 0.0 0.00 0.00 0.00 76 1011.2
20260505031530 61 9 0.0 0.0 0.00 0.00 0.00 73 1011.0
20260505030056 62 9 0.0 0.0 0.00 0.00 0.00 72 1010.7
20260505024531 63 9 0.0 0.0 0.00 0.00 0.00 70 1010.6
20260505023058 64 9 0.0 0.0 0.00 0.00 0.00 68 1010.4
20260505021526 65 9 0.0 0.0 0.00 0.00 0.00 66 1010.3
20260505020013 67 9 0.0 0.0 0.00 0.00 0.00 64 1010.1
20260505014550 68 9 0.0 0.0 0.00 0.00 0.00 63 1010.1
20260505013048 69 9 0.0 0.0 0.00 0.00 0.00 61 1010.0
20260505011549 70 9 0.0 0.0 0.00 0.00 0.00 60 1010.2
20260505010024 71 9 0.0 0.0 0.00 0.00 0.00 58 1010.2
20260505004547 72 9 0.0 0.0 0.00 0.00 0.00 56 1010.0
20260505003022 73 9 0.0 0.0 0.00 0.00 0.00 53 1010.0
20260505001513 75 9 0.0 0.0 0.00 0.00 0.00 51 1010.0
20260505000005 75 9 0.0 0.0 0.00 0.00 0.00 50 1010.1
20260504234509 77 9 0.0 0.0 0.00 0.00 0.00 48 1010.0
20260504233004 77 9 0.0 0.0 0.00 0.00 0.00 49 1010.0
20260504231520 78 9 0.0 0.0 0.00 0.00 0.00 47 1010.1
20260504230021 79 9 0.0 0.0 0.00 0.00 0.00 45 1010.2
20260504224535 79 9 0.0 0.0 0.00 0.00 0.00 48 1010.5
20260504223108 79 9 0.0 0.0 0.00 0.00 0.00 48 1010.6
20260504221550 79 9 0.0 0.0 0.00 0.00 0.00 49 1010.7
20260504220018 78 9 0.0 0.0 0.00 0.00 0.00 49 1010.9
20260504214545 78 9 0.0 0.0 0.00 0.00 0.00 49 1010.9
20260504213103 77 9 0.0 0.0 0.00 0.00 0.00 51 1011.1
20260504211533 77 9 0.0 0.0 0.00 0.00 0.00 52 1011.1
20260504210021 77 9 0.0 0.0 0.00 0.00 0.00 51 1011.3
20260504204548 76 9 0.0 0.0 0.00 0.00 0.00 52 1011.4
20260504203059 76 9 0.0 0.0 0.00 0.00 0.00 52 1011.5
20260504201525 75 9 0.0 0.0 0.00 0.00 0.00 56 1011.4
20260504200017 74 9 0.0 0.0 0.00 0.00 0.00 56 1011.4
20260504194513 73 9 0.0 0.0 0.00 0.00 0.00 59 1011.4
20260504193006 72 9 0.0 0.0 0.00 0.00 0.00 59 1011.5
20260504191545 72 9 0.0 0.0 0.00 0.00 0.00 59 1011.8
20260504184537 71 9 0.0 0.0 0.00 0.00 0.00 62 1011.8
20260504183053 70 9 0.0 0.0 0.00 0.00 0.00 63 1012.0
20260504181542 69 9 0.0 0.0 0.00 0.00 0.00 66 1011.8
20260504180101 67 9 0.0 0.0 0.00 0.00 0.00 69 1011.9
20260504174531 65 9 0.0 0.0 0.00 0.00 0.00 71 1011.9
20260504173048 64 9 0.0 0.0 0.00 0.00 0.00 73 1011.8
20260504171504 62 9 0.0 0.0 0.00 0.00 0.00 76 1011.7
20260504120105 48 9 0.0 0.0 0.00 0.00 0.00 85 1009.9
20260504081554 53 9 0.0 0.0 0.00 0.00 0.00 79 1009.8